Weather History for Alexandria Esle, LA

Change the Weather History Date:

Saturday, February 2, 2013

  Actual Average Record
Temperature  
Mean Temperature 11 °C -  
Max Temperature 23 °C 17 °C 27 °C (1974)
Min Temperature 0 °C 5 °C -7 °C (2011)
Degree Days  
Heating Degree Days 12    
Growing Degree Days 2 (Base 50)    
Moisture  
Dew Point 5 °C    
Average Humidity 70    
Maximum Humidity 93    
Minimum Humidity 38    
Precipitation  
Precipitation 0.00 mm - - ()
Sea Level Pressure  
Sea Level Pressure 1024 hPa    
Wind  
Wind Speed 5 km/h (WSW)    
Max Wind Speed 21 km/h    
Max Gust Speed 29 km/h    
Visibility 16 kilometers    
Events      
Averages and records for this station are not official NWS values.
T = Trace of Precipitation, MM = Missing Value Source: NWS Daily Summary

Daily Weather History Graph

Daily Weather History Graph

Search for Another Location

Airport:

Trip Planner

Search our weather history database for the weather conditions in past years. The results will help you decide how hot, cold, wet, or windy it might be!

Date:

Astronomy

Feb. 02, 2013 Rise Set
Actual Time 7:00 AM CST 5:45 PM CST
Civil Twilight 6:35 AM CST 6:10 PM CST
Nautical Twilight 6:06 AM CST 6:39 PM CST
Astronomical Twilight 5:37 AM CST 7:08 PM CST
Moon No Moon Rise 10:41 AM CST (2/2)
Length of Visible Light 11h 35m
Length of Day
10h 44m
Waning Gibbous, 59% of the Moon is Illuminated
Feb 2
Waning Gibbous
Feb 3
Last Quarter
Feb 10
New
Feb 17
First Quarter
Feb 25
Full

Hourly Weather History & Observations

Time (CST) Temp. Dew Point Humidity Pressure Visibility Wind Dir Wind Speed Gust Speed Precip Events Conditions
12:53 AM 2.8 °C 0.0 °C 82% 1026.8 hPa 16.1 km Calm Calm - N/A   Clear
1:53 AM 1.7 °C 0.0 °C 89% 1026.3 hPa 16.1 km Calm Calm - N/A   Clear
2:53 AM 1.1 °C -0.6 °C 89% 1025.8 hPa 16.1 km Calm Calm - N/A   Clear
3:53 AM 0.6 °C -1.1 °C 89% 1025.3 hPa 16.1 km Calm Calm - N/A   Clear
4:53 AM 0.6 °C -0.6 °C 92% 1024.8 hPa 16.1 km Calm Calm - N/A   Clear
5:53 AM 0.0 °C -1.1 °C 92% 1024.9 hPa 16.1 km Calm Calm - N/A   Clear
6:53 AM 1.1 °C -0.6 °C 89% 1025.1 hPa 16.1 km Calm Calm - N/A   Clear
7:53 AM 3.9 °C 2.2 °C 89% 1024.9 hPa 16.1 km Calm Calm - N/A   Clear
8:53 AM 11.1 °C 6.1 °C 71% 1025.3 hPa 16.1 km South 9.3 km/h / 2.6 m/s - N/A   Clear
9:53 AM 15.6 °C 6.1 °C 53% 1025.3 hPa 16.1 km South 13.0 km/h / 3.6 m/s - N/A   Clear
10:53 AM 17.8 °C 6.7 °C 48% 1025.0 hPa 16.1 km SSW 18.5 km/h / 5.1 m/s - N/A   Clear
11:53 AM 20.0 °C 7.8 °C 45% 1024.1 hPa 16.1 km SW 20.4 km/h / 5.7 m/s 29.6 km/h / 8.2 m/s N/A   Clear
12:53 PM 21.7 °C 7.8 °C 41% 1022.9 hPa 16.1 km West 20.4 km/h / 5.7 m/s - N/A   Clear
1:53 PM 22.2 °C 7.8 °C 40% 1022.0 hPa 16.1 km West 18.5 km/h / 5.1 m/s - N/A   Clear
2:53 PM 22.8 °C 7.8 °C 38% 1021.5 hPa 16.1 km WSW 16.7 km/h / 4.6 m/s - N/A   Clear
3:53 PM 22.2 °C 7.2 °C 38% 1021.2 hPa 16.1 km WNW 11.1 km/h / 3.1 m/s - N/A   Clear
4:53 PM 21.1 °C 7.8 °C 42% 1021.3 hPa 16.1 km WNW 5.6 km/h / 1.5 m/s - N/A   Mostly Cloudy
5:53 PM 17.2 °C 8.9 °C 58% 1021.8 hPa 16.1 km Calm Calm - N/A   Clear
6:53 PM 13.3 °C 8.9 °C 75% 1022.4 hPa 16.1 km Calm Calm - N/A   Partly Cloudy
7:53 PM 11.7 °C 8.9 °C 83% 1022.8 hPa 16.1 km Calm Calm - N/A   Clear
8:53 PM 10.6 °C 8.3 °C 86% 1023.0 hPa 16.1 km Calm Calm - N/A   Clear
9:53 PM 12.2 °C 8.9 °C 80% 1023.7 hPa 16.1 km Variable 5.6 km/h / 1.5 m/s - N/A   Partly Cloudy
10:53 PM 10.6 °C 8.3 °C 86% 1024.4 hPa 16.1 km Calm Calm - N/A   Scattered Clouds
11:53 PM 9.4 °C 8.3 °C 93% 1024.7 hPa 16.1 km Calm Calm - N/A   Scattered Clouds